When you browse on this site, cookies collect data to enhance your experience and personalize the content and advertising you see.
Visit our Privacy Policy to learn more. By continuing to use the site, you agree to this use of cookies and data.
  • In Lithuania
  • List of Countries
  • For 7 days
  • Water Temperature
  • Weather Map
  • Weather Widgets
  • user-avatar
    Login

    Hourly Weather Lubango

    Today, 26 May, Tuesday

    Time Temperature Precipitation Wind Pressure Humidity
    00:00 +13°C° 0 mm 1 mps 607 mmHg 42%
    01:00 +13°C° 0 mm 1 mps 607 mmHg 41%
    02:00 +13°C° 0 mm 1 mps 607 mmHg 41%
    03:00 +13°C° 0 mm 1 mps 607 mmHg 40%
    04:00 +13°C° 0 mm 1 mps 607 mmHg 40%
    05:00 +13°C° 0 mm 1 mps 607 mmHg 41%
    06:00 +13°C° 0 mm 1 mps 608 mmHg 42%
    07:00 +13°C° 0 mm 1 mps 608 mmHg 43%
    08:00 +16°C° 0 mm 1 mps 609 mmHg 38%
    09:00 +19°C° 0 mm 2 mps 611 mmHg 33%
    10:00 +23°C° 0 mm 2 mps 612 mmHg 28%
    11:00 +24°C° 0 mm 2 mps 611 mmHg 26%
    12:00 +25°C° 0 mm 2 mps 611 mmHg 24%
    13:00 +26°C° 0 mm 3 mps 611 mmHg 22%
    14:00 +25°C° 0 mm 3 mps 610 mmHg 22%
    15:00 +25°C° 0 mm 2 mps 610 mmHg 23%
    16:00 +24°C° 0 mm 2 mps 610 mmHg 23%
    17:00 +20°C° 0 mm 2 mps 609 mmHg 28%
    18:00 +18°C° 0 mm 1 mps 608 mmHg 34%
    19:00 +15°C° 0 mm 1 mps 607 mmHg 39%
    20:00 +14°C° 0 mm 1 mps 608 mmHg 39%
    21:00 +14°C° 0 mm 1 mps 608 mmHg 39%
    22:00 +14°C° 0 mm 1 mps 608 mmHg 39%
    23:00 +14°C° 0 mm 1 mps 608 mmHg 38%

    Tomorrow, 27 May, Wednesday

    Time Temperature Precipitation Wind Pressure Humidity
    00:00 +14°C° 0 mm 1 mps 608 mmHg 37%
    01:00 +14°C° 0 mm 1 mps 608 mmHg 36%
    02:00 +13°C° 0 mm 1 mps 608 mmHg 36%
    03:00 +13°C° 0 mm 1 mps 607 mmHg 36%
    04:00 +13°C° 0 mm 1 mps 607 mmHg 36%
    05:00 +13°C° 0 mm 1 mps 608 mmHg 37%
    06:00 +13°C° 0 mm 1 mps 608 mmHg 38%
    07:00 +14°C° 0 mm 1 mps 608 mmHg 39%
    08:00 +18°C° 0 mm 1 mps 610 mmHg 34%
    09:00 +21°C° 0 mm 1 mps 611 mmHg 30%
    10:00 +24°C° 0 mm 1 mps 612 mmHg 26%
    11:00 +25°C° 0 mm 2 mps 612 mmHg 25%
    12:00 +26°C° 0 mm 2 mps 612 mmHg 24%
    13:00 +26°C° 0 mm 2 mps 612 mmHg 24%
    14:00 +26°C° 0 mm 2 mps 611 mmHg 25%
    15:00 +25°C° 0 mm 2 mps 611 mmHg 26%
    16:00 +25°C° 0 mm 2 mps 610 mmHg 27%
    17:00 +21°C° 0 mm 2 mps 609 mmHg 33%
    18:00 +18°C° 0 mm 2 mps 609 mmHg 40%
    19:00 +15°C° 0 mm 1 mps 608 mmHg 47%
    20:00 +15°C° 0 mm 1 mps 608 mmHg 47%
    21:00 +15°C° 0 mm 1 mps 609 mmHg 46%
    22:00 +14°C° 0 mm 1 mps 609 mmHg 46%
    23:00 +14°C° 0 mm 1 mps 609 mmHg 45%

    Day after tomorrow, 28 May, Thursday

    Time Temperature Precipitation Wind Pressure Humidity
    00:00 +14°C° 0 mm 1 mps 609 mmHg 45%
    01:00 +14°C° 0 mm 1 mps 609 mmHg 44%
    02:00 +14°C° 0 mm 1 mps 608 mmHg 44%
    03:00 +14°C° 0 mm 1 mps 608 mmHg 45%
    04:00 +13°C° 0 mm 1 mps 608 mmHg 45%
    05:00 +14°C° 0 mm 1 mps 608 mmHg 45%
    06:00 +14°C° 0 mm 1 mps 609 mmHg 46%
    07:00 +14°C° 0 mm 1 mps 609 mmHg 47%
    08:00 +18°C° 0 mm 1 mps 610 mmHg 41%
    09:00 +21°C° 0 mm 1 mps 612 mmHg 35%
    10:00 +24°C° 0 mm 1 mps 613 mmHg 29%
    11:00 +25°C° 0 mm 1 mps 613 mmHg 28%
    12:00 +26°C° 0 mm 1 mps 612 mmHg 26%
    13:00 +27°C° 0 mm 1 mps 612 mmHg 25%
    14:00 +26°C° 0 mm 1 mps 612 mmHg 25%
    15:00 +26°C° 0 mm 1 mps 611 mmHg 26%
    16:00 +25°C° 0 mm 1 mps 611 mmHg 27%
    17:00 +23°C° 0 mm 1 mps 610 mmHg 32%
    18:00 +19°C° 0 mm 2 mps 609 mmHg 36%
    19:00 +16°C° 0 mm 2 mps 608 mmHg 41%
    20:00 +16°C° 0 mm 2 mps 608 mmHg 41%
    21:00 +15°C° 0 mm 2 mps 609 mmHg 40%
    22:00 +15°C° 0 mm 2 mps 609 mmHg 40%
    23:00 +15°C° 0 mm 2 mps 609 mmHg 40%

    29 May, Friday

    Time Temperature Precipitation Wind Pressure Humidity
    00:00 +15°C° 0 mm 2 mps 609 mmHg 39%
    01:00 +15°C° 0 mm 2 mps 608 mmHg 39%
    02:00 +15°C° 0 mm 2 mps 608 mmHg 39%
    03:00 +15°C° 0 mm 2 mps 608 mmHg 39%
    04:00 +15°C° 0 mm 2 mps 608 mmHg 39%
    05:00 +15°C° 0 mm 2 mps 608 mmHg 40%
    06:00 +15°C° 0 mm 2 mps 608 mmHg 41%
    07:00 +15°C° 0 mm 2 mps 609 mmHg 42%
    08:00 +17°C° 0 mm 2 mps 610 mmHg 37%
    09:00 +20°C° 0 mm 3 mps 611 mmHg 32%
    10:00 +24°C° 0 mm 3 mps 612 mmHg 28%
    11:00 +25°C° 0 mm 3 mps 612 mmHg 26%
    12:00 +26°C° 0 mm 2 mps 612 mmHg 24%
    13:00 +27°C° 0 mm 2 mps 611 mmHg 23%
    14:00 +27°C° 0 mm 2 mps 611 mmHg 23%
    15:00 +27°C° 0 mm 2 mps 610 mmHg 23%
    16:00 +26°C° 0 mm 1 mps 610 mmHg 23%
    17:00 +24°C° 0 mm 1 mps 609 mmHg 27%
    18:00 +21°C° 0 mm 1 mps 609 mmHg 30%
    19:00 +18°C° 0 mm 1 mps 608 mmHg 34%
    20:00 +17°C° 0 mm 2 mps 608 mmHg 35%
    21:00 +16°C° 0 mm 2 mps 608 mmHg 36%
    22:00 +16°C° 0 mm 2 mps 608 mmHg 36%
    23:00 +16°C° 0 mm 2 mps 608 mmHg 37%

    30 May, Saturday

    Time Temperature Precipitation Wind Pressure Humidity
    00:00 +15°C° 0 mm 2 mps 608 mmHg 38%
    01:00 +15°C° 0 mm 2 mps 608 mmHg 38%
    02:00 +15°C° 0 mm 2 mps 607 mmHg 38%
    03:00 +15°C° 0 mm 2 mps 607 mmHg 38%
    04:00 +15°C° 0 mm 2 mps 607 mmHg 37%
    05:00 +15°C° 0 mm 2 mps 608 mmHg 37%
    06:00 +14°C° 0 mm 3 mps 608 mmHg 37%
    07:00 +14°C° 0 mm 3 mps 608 mmHg 37%
    08:00 +18°C° 0 mm 3 mps 609 mmHg 33%
    09:00 +21°C° 0 mm 4 mps 611 mmHg 29%
    10:00 +25°C° 0 mm 4 mps 612 mmHg 26%
    11:00 +26°C° 0 mm 4 mps 612 mmHg 24%
    12:00 +27°C° 0 mm 3 mps 612 mmHg 23%
    13:00 +28°C° 0 mm 3 mps 611 mmHg 21%
    14:00 +27°C° 0 mm 2 mps 611 mmHg 22%
    15:00 +27°C° 0 mm 2 mps 611 mmHg 22%
    16:00 +27°C° 0 mm 2 mps 610 mmHg 22%
    17:00 +24°C° 0 mm 2 mps 610 mmHg 26%
    18:00 +20°C° 0 mm 2 mps 609 mmHg 30%
    19:00 +17°C° 0 mm 2 mps 608 mmHg 34%
    20:00 +17°C° 0 mm 2 mps 608 mmHg 34%
    21:00 +16°C° 0 mm 2 mps 609 mmHg 35%
    22:00 +16°C° 0 mm 2 mps 609 mmHg 35%
    23:00 +15°C° 0 mm 2 mps 608 mmHg 36%

    31 May, Sunday

    Time Temperature Precipitation Wind Pressure Humidity
    00:00 +15°C° 0 mm 2 mps 608 mmHg 36%
    01:00 +15°C° 0 mm 2 mps 608 mmHg 36%
    02:00 +15°C° 0 mm 2 mps 608 mmHg 35%
    03:00 +14°C° 0 mm 2 mps 608 mmHg 35%
    04:00 +14°C° 0 mm 2 mps 608 mmHg 34%
    05:00 +13°C° 0 mm 3 mps 608 mmHg 34%
    06:00 +13°C° 0 mm 3 mps 608 mmHg 34%
    07:00 +13°C° 0 mm 3 mps 609 mmHg 34%
    08:00 +17°C° 0 mm 3 mps 610 mmHg 30%
    09:00 +20°C° 0 mm 4 mps 611 mmHg 26%
    10:00 +23°C° 0 mm 4 mps 612 mmHg 22%
    11:00 +25°C° 0 mm 4 mps 612 mmHg 21%
    12:00 +27°C° 0 mm 3 mps 612 mmHg 19%
    13:00 +28°C° 0 mm 3 mps 612 mmHg 18%
    14:00 +27°C° 0 mm 2 mps 612 mmHg 18%
    15:00 +27°C° 0 mm 2 mps 611 mmHg 18%
    16:00 +27°C° 0 mm 2 mps 611 mmHg 19%
    17:00 +24°C° 0 mm 2 mps 610 mmHg 22%
    18:00 +20°C° 0 mm 2 mps 610 mmHg 25%
    19:00 +17°C° 0 mm 2 mps 609 mmHg 28%
    20:00 +17°C° 0 mm 2 mps 609 mmHg 29%
    21:00 +16°C° 0 mm 2 mps 609 mmHg 29%
    22:00 +16°C° 0 mm 2 mps 610 mmHg 29%
    23:00 +16°C° 0 mm 2 mps 609 mmHg 30%
    Show more